| time (UTC) | temp F | wind direction | speed MPH | gust MPH | rain 1hr in | rain 24hr in | rain mn in | humidity % | barometer mb |
| 20260507065639 | 68 | 293 | 0.0 | 0.0 | 0.00 | 0.00 | 0.00 | 99 | 1016.3 |
| 20260507065137 | 69 | 293 | 0.0 | 0.0 | 0.00 | 0.00 | 0.00 | 99 | 1016.2 |
| 20260507064634 | 69 | 293 | 0.0 | 0.0 | 0.00 | 0.00 | 0.00 | 98 | 1016.5 |
| 20260507064133 | 69 | 293 | 0.0 | 0.0 | 0.00 | 0.00 | 0.00 | 98 | 1016.5 |
| 20260507063630 | 69 | 293 | 0.0 | 0.0 | 0.00 | 0.00 | 0.00 | 98 | 1016.5 |
| 20260507063127 | 69 | 293 | 0.0 | 0.0 | 0.00 | 0.00 | 0.00 | 98 | 1016.3 |
| 20260507062623 | 69 | 293 | 0.0 | 0.0 | 0.00 | 0.00 | 0.00 | 98 | 1016.6 |
| 20260507062121 | 69 | 293 | 0.0 | 0.0 | 0.00 | 0.00 | 0.00 | 98 | 1016.5 |
| 20260507061619 | 70 | 293 | 0.0 | 0.0 | 0.00 | 0.00 | 0.00 | 98 | 1016.4 |
| 20260507061117 | 70 | 293 | 0.0 | 0.0 | 0.00 | 0.00 | 0.00 | 98 | 1016.6 |
| 20260507060615 | 70 | 293 | 0.0 | 0.0 | 0.00 | 0.00 | 0.00 | 98 | 1016.5 |
| 20260507060111 | 70 | 292 | 0.0 | 0.0 | 0.00 | 0.00 | 0.00 | 98 | 1016.6 |
| 20260507055606 | 70 | 309 | 0.0 | 0.0 | 0.00 | 0.00 | 0.00 | 98 | 1016.7 |
| 20260507055102 | 70 | 308 | 0.0 | 0.0 | 0.00 | 0.00 | 0.00 | 97 | 1016.7 |
| 20260507054558 | 70 | 307 | 0.0 | 0.0 | 0.00 | 0.00 | 0.00 | 97 | 1016.9 |
| 20260507054056 | 70 | 309 | 0.0 | 0.0 | 0.00 | 0.00 | 0.00 | 97 | 1017.0 |
| 20260507053553 | 70 | 308 | 0.0 | 0.0 | 0.00 | 0.00 | 0.00 | 97 | 1017.3 |
| 20260507053052 | 71 | 308 | 0.0 | 0.0 | 0.00 | 0.00 | 0.00 | 97 | 1016.9 |
| 20260507052549 | 71 | 308 | 0.0 | 0.0 | 0.00 | 0.00 | 0.00 | 96 | 1017.1 |
| 20260507052046 | 71 | 309 | 0.0 | 0.0 | 0.00 | 0.00 | 0.00 | 96 | 1017.3 |
| 20260507051543 | 71 | 309 | 0.0 | 0.0 | 0.00 | 0.00 | 0.00 | 96 | 1017.4 |
| 20260507051040 | 71 | 309 | 0.0 | 0.0 | 0.00 | 0.00 | 0.00 | 96 | 1017.4 |
| 20260507050536 | 71 | 307 | 0.0 | 0.0 | 0.00 | 0.00 | 0.00 | 95 | 1017.5 |
| 20260507050033 | 71 | 301 | 0.0 | 0.0 | 0.00 | 0.00 | 0.00 | 95 | 1017.4 |
| 20260507045530 | 71 | 300 | 0.0 | 0.0 | 0.00 | 0.00 | 0.00 | 95 | 1017.4 |
| 20260507045027 | 71 | 292 | 0.0 | 0.0 | 0.00 | 0.00 | 0.00 | 95 | 1017.4 |
| 20260507044524 | 71 | 299 | 0.0 | 1.0 | 0.00 | 0.00 | 0.00 | 95 | 1017.3 |
| 20260507044021 | 71 | 299 | 1.0 | 1.0 | 0.00 | 0.00 | 0.00 | 95 | 1017.5 |
| 20260507043516 | 71 | 272 | 0.0 | 0.0 | 0.00 | 0.00 | 0.00 | 94 | 1017.4 |
| 20260507043014 | 72 | 272 | 0.0 | 0.0 | 0.00 | 0.00 | 0.00 | 94 | 1017.1 |
| 20260507042510 | 72 | 272 | 0.0 | 0.0 | 0.00 | 0.00 | 0.00 | 94 | 1017.3 |
| 20260507042005 | 72 | 272 | 0.0 | 0.0 | 0.00 | 0.00 | 0.00 | 93 | 1017.2 |
| 20260507041503 | 72 | 272 | 0.0 | 0.0 | 0.00 | 0.00 | 0.00 | 93 | 1017.1 |
| 20260507040959 | 73 | 271 | 0.0 | 0.0 | 0.00 | 0.00 | 0.00 | 92 | 1017.4 |
| 20260507040455 | 73 | 271 | 0.0 | 0.0 | 0.00 | 0.00 | 0.00 | 92 | 1017.1 |
| 20260507035951 | 74 | 269 | 0.0 | 0.0 | 0.00 | 0.00 | 0.00 | 91 | 1017.2 |
| 20260507035448 | 74 | 268 | 0.0 | 0.0 | 0.00 | 0.00 | 0.00 | 90 | 1017.3 |
| 20260507034945 | 74 | 280 | 0.0 | 0.0 | 0.00 | 0.00 | 0.00 | 90 | 1017.1 |
| 20260507034442 | 74 | 349 | 0.0 | 0.0 | 0.00 | 0.00 | 0.00 | 90 | 1017.1 |
| 20260507033940 | 74 | 251 | 0.0 | 0.0 | 0.00 | 0.00 | 0.00 | 89 | 1017.1 |
| 20260507033437 | 74 | 196 | 1.0 | 1.0 | 0.00 | 0.00 | 0.00 | 89 | 1016.9 |
| 20260507032934 | 75 | 139 | 1.0 | 2.0 | 0.00 | 0.00 | 0.00 | 88 | 1017.1 |
| 20260507032431 | 75 | 270 | 0.0 | 0.0 | 0.00 | 0.00 | 0.00 | 87 | 1017.0 |
| 20260507031927 | 76 | 255 | 0.0 | 0.0 | 0.00 | 0.00 | 0.00 | 86 | 1017.0 |
| 20260507031426 | 76 | 201 | 1.0 | 1.0 | 0.00 | 0.00 | 0.00 | 86 | 1017.1 |
| 20260507030921 | 76 | 163 | 1.0 | 1.0 | 0.00 | 0.00 | 0.00 | 86 | 1017.0 |
| 20260507030418 | 76 | 185 | 0.0 | 0.0 | 0.00 | 0.00 | 0.00 | 85 | 1016.9 |
| 20260507025915 | 76 | 211 | 1.0 | 1.0 | 0.00 | 0.00 | 0.00 | 85 | 1017.1 |
| 20260507025412 | 76 | 154 | 0.0 | 1.0 | 0.00 | 0.00 | 0.00 | 84 | 1017.2 |
| 20260507024910 | 76 | 211 | 0.0 | 1.0 | 0.00 | 0.00 | 0.00 | 84 | 1016.9 |
| 20260507024407 | 75 | 209 | 0.0 | 1.0 | 0.00 | 0.00 | 0.00 | 84 | 1017.0 |
| 20260507023903 | 75 | 64 | 1.0 | 1.0 | 0.00 | 0.00 | 0.00 | 84 | 1017.0 |
| 20260507023400 | 76 | 85 | 0.0 | 0.0 | 0.00 | 0.00 | 0.00 | 84 | 1017.1 |
| 20260507022857 | 76 | 174 | 0.0 | 0.0 | 0.00 | 0.00 | 0.00 | 83 | 1017.2 |
| 20260507022353 | 76 | 177 | 0.0 | 1.0 | 0.00 | 0.00 | 0.00 | 82 | 1017.1 |
| 20260507021849 | 76 | 318 | 0.0 | 0.0 | 0.00 | 0.00 | 0.00 | 82 | 1017.2 |
| 20260507021345 | 76 | 28 | 0.0 | 1.0 | 0.00 | 0.00 | 0.00 | 82 | 1017.0 |
| 20260507020843 | 76 | 128 | 0.0 | 0.0 | 0.00 | 0.00 | 0.00 | 81 | 1017.3 |
| 20260507020339 | 76 | 218 | 0.0 | 1.0 | 0.00 | 0.00 | 0.00 | 81 | 1017.1 |
| 20260507015836 | 75 | 329 | 0.0 | 0.0 | 0.00 | 0.00 | 0.00 | 82 | 1017.3 |
| 20260507015334 | 76 | 323 | 0.0 | 0.0 | 0.00 | 0.00 | 0.00 | 80 | 1017.3 |
| 20260507014831 | 76 | 234 | 0.0 | 0.0 | 0.00 | 0.00 | 0.00 | 79 | 1017.2 |
| 20260507014327 | 76 | 237 | 0.0 | 0.0 | 0.00 | 0.00 | 0.00 | 79 | 1017.1 |
| 20260507013824 | 76 | 237 | 0.0 | 0.0 | 0.00 | 0.00 | 0.00 | 78 | 1017.0 |
| 20260507013321 | 77 | 236 | 0.0 | 0.0 | 0.00 | 0.00 | 0.00 | 77 | 1017.3 |
| 20260507012819 | 77 | 236 | 0.0 | 0.0 | 0.00 | 0.00 | 0.00 | 76 | 1017.0 |
| 20260507012314 | 77 | 242 | 0.0 | 0.0 | 0.00 | 0.00 | 0.00 | 75 | 1017.1 |
| 20260507011812 | 78 | 248 | 0.0 | 0.0 | 0.00 | 0.00 | 0.00 | 74 | 1017.1 |
| 20260507011308 | 78 | 223 | 0.0 | 1.0 | 0.00 | 0.00 | 0.00 | 73 | 1017.0 |
| 20260507010808 | 78 | 141 | 1.0 | 2.0 | 0.00 | 0.00 | 0.00 | 72 | 1017.2 |
| 20260507010304 | 78 | 140 | 1.0 | 2.0 | 0.00 | 0.00 | 0.00 | 72 | 1017.0 |
| 20260507005802 | 79 | 169 | 2.0 | 2.0 | 0.00 | 0.00 | 0.00 | 71 | 1017.0 |
| 20260507005258 | 79 | 147 | 1.0 | 1.0 | 0.00 | 0.00 | 0.00 | 70 | 1017.0 |
| 20260507004754 | 79 | 137 | 2.0 | 2.0 | 0.00 | 0.00 | 0.00 | 70 | 1016.8 |
| 20260507004252 | 79 | 132 | 1.0 | 2.0 | 0.00 | 0.00 | 0.00 | 69 | 1016.9 |
| 20260507003748 | 80 | 126 | 1.0 | 1.0 | 0.00 | 0.00 | 0.00 | 68 | 1016.8 |
| 20260507003243 | 80 | 146 | 1.0 | 1.0 | 0.00 | 0.00 | 0.00 | 67 | 1016.8 |
| 20260507002740 | 80 | 216 | 1.0 | 1.0 | 0.00 | 0.00 | 0.00 | 66 | 1016.9 |
| 20260507002236 | 80 | 125 | 2.0 | 2.0 | 0.00 | 0.00 | 0.00 | 66 | 1016.7 |
| 20260507001733 | 80 | 91 | 0.0 | 0.0 | 0.00 | 0.00 | 0.00 | 65 | 1016.6 |
| 20260507001230 | 81 | 218 | 0.0 | 0.0 | 0.00 | 0.00 | 0.00 | 64 | 1016.5 |
| 20260507000727 | 81 | 168 | 1.0 | 1.0 | 0.00 | 0.00 | 0.00 | 64 | 1016.7 |
| 20260507000222 | 82 | 110 | 2.0 | 2.0 | 0.00 | 0.00 | 0.00 | 63 | 1016.4 |
| 20260506235719 | 82 | 157 | 0.0 | 0.0 | 0.00 | 0.00 | 0.00 | 62 | 1016.5 |
| 20260506235214 | 82 | 195 | 4.0 | 5.0 | 0.00 | 0.00 | 0.00 | 61 | 1016.6 |
| 20260506234712 | 82 | 120 | 3.0 | 3.0 | 0.00 | 0.00 | 0.00 | 61 | 1016.6 |
| 20260506234209 | 83 | 78 | 5.0 | 6.0 | 0.00 | 0.00 | 0.00 | 60 | 1016.8 |
| 20260506233707 | 83 | 125 | 3.0 | 3.0 | 0.00 | 0.00 | 0.00 | 60 | 1016.5 |
| 20260506233203 | 83 | 112 | 3.0 | 3.0 | 0.00 | 0.00 | 0.00 | 59 | 1016.5 |
| 20260506232659 | 84 | 74 | 4.0 | 7.0 | 0.00 | 0.00 | 0.00 | 58 | 1016.7 |
| 20260506232154 | 84 | 102 | 3.0 | 3.0 | 0.00 | 0.00 | 0.00 | 58 | 1016.7 |
| 20260506231652 | 84 | 154 | 3.0 | 3.0 | 0.00 | 0.00 | 0.00 | 58 | 1016.7 |
| 20260506231151 | 84 | 80 | 1.0 | 2.0 | 0.00 | 0.00 | 0.00 | 58 | 1016.7 |
| 20260506230647 | 85 | 100 | 5.0 | 6.0 | 0.00 | 0.00 | 0.00 | 58 | 1016.7 |
| 20260506230144 | 85 | 214 | 2.0 | 3.0 | 0.00 | 0.00 | 0.00 | 56 | 1016.7 |
| 20260506225640 | 85 | 116 | 0.0 | 1.0 | 0.00 | 0.00 | 0.00 | 57 | 1016.8 |
| 20260506225137 | 86 | 133 | 6.0 | 9.0 | 0.00 | 0.00 | 0.00 | 55 | 1016.8 |
| 20260506224633 | 86 | 89 | 3.0 | 3.0 | 0.00 | 0.00 | 0.00 | 56 | 1016.7 |
| 20260506224130 | 86 | 106 | 4.0 | 6.0 | 0.00 | 0.00 | 0.00 | 56 | 1016.6 |
| 20260506223626 | 86 | 73 | 2.0 | 3.0 | 0.00 | 0.00 | 0.00 | 56 | 1016.5 |
| 20260506223122 | 86 | 145 | 5.0 | 7.0 | 0.00 | 0.00 | 0.00 | 55 | 1016.5 |
| 20260506222620 | 87 | 69 | 5.0 | 6.0 | 0.00 | 0.00 | 0.00 | 55 | 1016.6 |
| 20260506222116 | 87 | 83 | 5.0 | 8.0 | 0.00 | 0.00 | 0.00 | 53 | 1016.5 |
| 20260506221614 | 88 | 187 | 4.0 | 8.0 | 0.00 | 0.00 | 0.00 | 51 | 1016.5 |
| 20260506221112 | 88 | 169 | 3.0 | 6.0 | 0.00 | 0.00 | 0.00 | 51 | 1016.7 |
| 20260506220608 | 88 | 163 | 3.0 | 5.0 | 0.00 | 0.00 | 0.00 | 52 | 1016.3 |
| 20260506215600 | 88 | 100 | 5.0 | 7.0 | 0.00 | 0.00 | 0.00 | 52 | 1016.6 |
| 20260506215055 | 88 | 161 | 5.0 | 7.0 | 0.00 | 0.00 | 0.00 | 49 | 1016.7 |
| 20260506214553 | 88 | 151 | 4.0 | 5.0 | 0.00 | 0.00 | 0.00 | 48 | 1016.5 |
| 20260506214050 | 89 | 93 | 6.0 | 8.0 | 0.00 | 0.00 | 0.00 | 49 | 1016.5 |
| 20260506213548 | 90 | 84 | 6.0 | 7.0 | 0.00 | 0.00 | 0.00 | 46 | 1016.5 |
| 20260506213045 | 89 | 137 | 6.0 | 8.0 | 0.00 | 0.00 | 0.00 | 48 | 1016.6 |
| 20260506212542 | 90 | 107 | 2.0 | 3.0 | 0.00 | 0.00 | 0.00 | 47 | 1016.5 |
| 20260506212036 | 89 | 163 | 5.0 | 8.0 | 0.00 | 0.00 | 0.00 | 47 | 1016.6 |
| 20260506211533 | 90 | 188 | 5.0 | 8.0 | 0.00 | 0.00 | 0.00 | 48 | 1016.5 |
| 20260506211030 | 91 | 112 | 3.0 | 6.0 | 0.00 | 0.00 | 0.00 | 45 | 1016.5 |
| 20260506210526 | 90 | 77 | 1.0 | 2.0 | 0.00 | 0.00 | 0.00 | 47 | 1016.6 |
| 20260506210023 | 91 | 112 | 4.0 | 7.0 | 0.00 | 0.00 | 0.00 | 46 | 1016.4 |
| 20260506205520 | 90 | 145 | 2.0 | 3.0 | 0.00 | 0.00 | 0.00 | 45 | 1016.6 |
| 20260506205015 | 90 | 125 | 2.0 | 2.0 | 0.00 | 0.00 | 0.00 | 45 | 1016.5 |
| 20260506204514 | 90 | 99 | 5.0 | 7.0 | 0.00 | 0.00 | 0.00 | 45 | 1016.6 |
| 20260506204010 | 91 | 80 | 6.0 | 9.0 | 0.00 | 0.00 | 0.00 | 45 | 1016.3 |
| 20260506203508 | 91 | 8 | 4.0 | 6.0 | 0.00 | 0.00 | 0.00 | 46 | 1016.6 |
| 20260506203004 | 92 | 82 | 6.0 | 7.0 | 0.00 | 0.00 | 0.00 | 44 | 1016.4 |
| 20260506202502 | 91 | 110 | 7.0 | 10.0 | 0.00 | 0.00 | 0.00 | 44 | 1016.5 |
| 20260506201958 | 91 | 82 | 6.0 | 7.0 | 0.00 | 0.00 | 0.00 | 43 | 1016.4 |
| 20260506201455 | 92 | 82 | 5.0 | 8.0 | 0.00 | 0.00 | 0.00 | 45 | 1016.5 |
| 20260506200946 | 91 | 103 | 7.0 | 9.0 | 0.00 | 0.00 | 0.00 | 44 | 1016.6 |
| 20260506200442 | 92 | 156 | 5.0 | 8.0 | 0.00 | 0.00 | 0.00 | 43 | 1016.4 |
| 20260506195939 | 91 | 6 | 3.0 | 5.0 | 0.00 | 0.00 | 0.00 | 44 | 1016.5 |
| 20260506195436 | 91 | 109 | 8.0 | 11.0 | 0.00 | 0.00 | 0.00 | 43 | 1016.7 |
| 20260506194933 | 92 | 123 | 9.0 | 13.0 | 0.00 | 0.00 | 0.00 | 42 | 1016.7 |
| 20260506194430 | 92 | 110 | 7.0 | 7.0 | 0.00 | 0.00 | 0.00 | 43 | 1016.7 |
| 20260506193927 | 92 | 146 | 3.0 | 6.0 | 0.00 | 0.00 | 0.00 | 43 | 1016.7 |
| 20260506193424 | 92 | 105 | 8.0 | 10.0 | 0.00 | 0.00 | 0.00 | 43 | 1016.7 |
| 20260506192920 | 93 | 218 | 7.0 | 8.0 | 0.00 | 0.00 | 0.00 | 43 | 1016.6 |
| 20260506192417 | 93 | 99 | 5.0 | 7.0 | 0.00 | 0.00 | 0.00 | 44 | 1016.6 |
| 20260506191914 | 93 | 133 | 4.0 | 6.0 | 0.00 | 0.00 | 0.00 | 45 | 1016.7 |
| 20260506191410 | 93 | 159 | 1.0 | 2.0 | 0.00 | 0.00 | 0.00 | 42 | 1016.8 |
| 20260506190908 | 94 | 206 | 5.0 | 7.0 | 0.00 | 0.00 | 0.00 | 43 | 1017.0 |
| 20260506190404 | 95 | 132 | 7.0 | 8.0 | 0.00 | 0.00 | 0.00 | 42 | 1016.8 |
| 20260506185901 | 94 | 150 | 2.0 | 3.0 | 0.00 | 0.00 | 0.00 | 42 | 1016.9 |
| 20260506185358 | 94 | 65 | 1.0 | 1.0 | 0.00 | 0.00 | 0.00 | 42 | 1017.2 |
| 20260506184855 | 93 | 66 | 3.0 | 3.0 | 0.00 | 0.00 | 0.00 | 44 | 1017.2 |
| 20260506184352 | 92 | 135 | 6.0 | 11.0 | 0.00 | 0.00 | 0.00 | 46 | 1017.1 |
| 20260506183849 | 93 | 82 | 5.0 | 7.0 | 0.00 | 0.00 | 0.00 | 43 | 1017.3 |
| 20260506183344 | 95 | 184 | 3.0 | 3.0 | 0.00 | 0.00 | 0.00 | 42 | 1017.4 |
| 20260506182842 | 93 | 152 | 2.0 | 5.0 | 0.00 | 0.00 | 0.00 | 43 | 1017.3 |
| 20260506182339 | 93 | 135 | 5.0 | 7.0 | 0.00 | 0.00 | 0.00 | 43 | 1017.3 |
| 20260506181836 | 95 | 192 | 7.0 | 8.0 | 0.00 | 0.00 | 0.00 | 43 | 1017.6 |
| 20260506181335 | 94 | 249 | 1.0 | 1.0 | 0.00 | 0.00 | 0.00 | 44 | 1017.4 |
| 20260506180831 | 93 | 125 | 3.0 | 5.0 | 0.00 | 0.00 | 0.00 | 45 | 1017.4 |
| 20260506180327 | 94 | 173 | 5.0 | 6.0 | 0.00 | 0.00 | 0.00 | 43 | 1017.6 |
| 20260506175823 | 94 | 41 | 0.0 | 0.0 | 0.00 | 0.00 | 0.00 | 44 | 1017.5 |
| 20260506175321 | 93 | 123 | 4.0 | 5.0 | 0.00 | 0.00 | 0.00 | 43 | 1017.6 |
| 20260506174818 | 93 | 330 | 1.0 | 1.0 | 0.00 | 0.00 | 0.00 | 44 | 1017.6 |
| 20260506174315 | 93 | 219 | 4.0 | 6.0 | 0.00 | 0.00 | 0.00 | 45 | 1017.6 |
| 20260506173812 | 93 | 194 | 3.0 | 5.0 | 0.00 | 0.00 | 0.00 | 45 | 1017.8 |
| 20260506173309 | 92 | 210 | 1.0 | 2.0 | 0.00 | 0.00 | 0.00 | 45 | 1017.7 |
| 20260506172806 | 93 | 210 | 5.0 | 7.0 | 0.00 | 0.00 | 0.00 | 46 | 1017.8 |
| 20260506172306 | 93 | 299 | 0.0 | 0.0 | 0.00 | 0.00 | 0.00 | 43 | 1017.7 |
| 20260506171800 | 91 | 75 | 1.0 | 1.0 | 0.00 | 0.00 | 0.00 | 47 | 1018.1 |
| 20260506171257 | 92 | 95 | 5.0 | 8.0 | 0.00 | 0.00 | 0.00 | 46 | 1017.9 |
| 20260506170755 | 92 | 129 | 4.0 | 6.0 | 0.00 | 0.00 | 0.00 | 45 | 1017.7 |
| 20260506170251 | 91 | 112 | 1.0 | 2.0 | 0.00 | 0.00 | 0.00 | 47 | 1018.0 |
| 20260506165750 | 91 | 196 | 3.0 | 3.0 | 0.00 | 0.00 | 0.00 | 48 | 1018.1 |
| 20260506165247 | 92 | 102 | 6.0 | 8.0 | 0.00 | 0.00 | 0.00 | 48 | 1018.1 |
| 20260506164744 | 91 | 166 | 2.0 | 2.0 | 0.00 | 0.00 | 0.00 | 47 | 1018.0 |
| 20260506164240 | 92 | 221 | 4.0 | 6.0 | 0.00 | 0.00 | 0.00 | 48 | 1018.1 |
| 20260506163737 | 91 | 153 | 3.0 | 5.0 | 0.00 | 0.00 | 0.00 | 47 | 1018.1 |
| 20260506163232 | 92 | 93 | 6.0 | 7.0 | 0.00 | 0.00 | 0.00 | 48 | 1018.1 |
| 20260506162728 | 91 | 195 | 5.0 | 6.0 | 0.00 | 0.00 | 0.00 | 51 | 1018.0 |
| 20260506162226 | 91 | 203 | 2.0 | 2.0 | 0.00 | 0.00 | 0.00 | 48 | 1018.1 |
| 20260506161723 | 91 | 127 | 2.0 | 3.0 | 0.00 | 0.00 | 0.00 | 48 | 1018.1 |
| 20260506161220 | 93 | 190 | 3.0 | 5.0 | 0.00 | 0.00 | 0.00 | 48 | 1018.1 |
| 20260506160718 | 92 | 32 | 2.0 | 2.0 | 0.00 | 0.00 | 0.00 | 49 | 1018.3 |
| 20260506160214 | 91 | 108 | 4.0 | 5.0 | 0.00 | 0.00 | 0.00 | 43 | 1018.2 |
| 20260506155713 | 90 | 122 | 5.0 | 6.0 | 0.00 | 0.00 | 0.00 | 47 | 1018.5 |
| 20260506155210 | 90 | 131 | 3.0 | 5.0 | 0.00 | 0.00 | 0.00 | 53 | 1018.3 |
| 20260506153317 | 91 | 171 | 3.0 | 6.0 | 0.00 | 0.00 | 0.00 | 56 | 1018.4 |
| 20260506152814 | 89 | 93 | 4.0 | 6.0 | 0.00 | 0.00 | 0.00 | 55 | 1018.4 |
| 20260506152311 | 90 | 153 | 1.0 | 2.0 | 0.00 | 0.00 | 0.00 | 53 | 1018.5 |
| 20260506151810 | 89 | 232 | 4.0 | 5.0 | 0.00 | 0.00 | 0.00 | 53 | 1018.3 |
| 20260506151307 | 88 | 115 | 2.0 | 3.0 | 0.00 | 0.00 | 0.00 | 54 | 1018.2 |
| 20260506150803 | 88 | 121 | 6.0 | 7.0 | 0.00 | 0.00 | 0.00 | 57 | 1018.2 |
| 20260506150304 | 88 | 250 | 1.0 | 1.0 | 0.00 | 0.00 | 0.00 | 60 | 1018.1 |
| 20260506145757 | 88 | 84 | 1.0 | 1.0 | 0.00 | 0.00 | 0.00 | 61 | 1018.2 |
| 20260506145254 | 89 | 136 | 3.0 | 3.0 | 0.00 | 0.00 | 0.00 | 61 | 1018.2 |
| 20260506144751 | 88 | 214 | 1.0 | 2.0 | 0.00 | 0.00 | 0.00 | 59 | 1018.4 |
| 20260506144248 | 88 | 214 | 5.0 | 7.0 | 0.00 | 0.00 | 0.00 | 58 | 1018.2 |
| 20260506143746 | 88 | 222 | 3.0 | 5.0 | 0.00 | 0.00 | 0.00 | 66 | 1018.1 |
| 20260506143243 | 87 | 180 | 2.0 | 2.0 | 0.00 | 0.00 | 0.00 | 65 | 1018.3 |
| 20260506142741 | 87 | 163 | 5.0 | 6.0 | 0.00 | 0.00 | 0.00 | 70 | 1018.3 |
| 20260506142239 | 86 | 58 | 1.0 | 1.0 | 0.00 | 0.00 | 0.00 | 71 | 1018.3 |
| 20260506141738 | 86 | 166 | 2.0 | 3.0 | 0.00 | 0.00 | 0.00 | 72 | 1018.3 |
| 20260506141235 | 86 | 147 | 4.0 | 7.0 | 0.00 | 0.00 | 0.00 | 73 | 1018.4 |
| 20260506140732 | 85 | 133 | 3.0 | 3.0 | 0.00 | 0.00 | 0.00 | 74 | 1018.3 |
| 20260506140229 | 84 | 103 | 4.0 | 5.0 | 0.00 | 0.00 | 0.00 | 78 | 1018.2 |
| 20260506135726 | 85 | 349 | 0.0 | 0.0 | 0.00 | 0.00 | 0.00 | 75 | 1018.1 |
| 20260506135222 | 84 | 91 | 4.0 | 6.0 | 0.00 | 0.00 | 0.00 | 76 | 1018.3 |
| 20260506134719 | 83 | 159 | 3.0 | 3.0 | 0.00 | 0.00 | 0.00 | 80 | 1017.9 |
| 20260506134215 | 84 | 68 | 2.0 | 2.0 | 0.00 | 0.00 | 0.00 | 80 | 1018.2 |
| 20260506133713 | 83 | 95 | 2.0 | 2.0 | 0.00 | 0.00 | 0.00 | 81 | 1017.9 |
| 20260506133209 | 82 | 135 | 3.0 | 3.0 | 0.00 | 0.00 | 0.00 | 84 | 1018.1 |
| 20260506132706 | 82 | 171 | 3.0 | 5.0 | 0.00 | 0.00 | 0.00 | 84 | 1017.7 |
| 20260506132203 | 82 | 119 | 3.0 | 3.0 | 0.00 | 0.00 | 0.00 | 85 | 1018.0 |
| 20260506131701 | 81 | 205 | 2.0 | 3.0 | 0.00 | 0.00 | 0.00 | 86 | 1017.7 |
| 20260506131156 | 81 | 130 | 3.0 | 5.0 | 0.00 | 0.00 | 0.00 | 86 | 1017.8 |
| 20260506130654 | 81 | 97 | 3.0 | 5.0 | 0.00 | 0.00 | 0.00 | 86 | 1017.8 |
| 20260506130151 | 81 | 120 | 3.0 | 3.0 | 0.00 | 0.00 | 0.00 | 87 | 1017.8 |
| 20260506125649 | 81 | 230 | 2.0 | 3.0 | 0.00 | 0.00 | 0.00 | 87 | 1017.9 |
| 20260506125147 | 80 | 261 | 1.0 | 1.0 | 0.00 | 0.00 | 0.00 | 89 | 1017.8 |
| 20260506124645 | 79 | 169 | 3.0 | 3.0 | 0.00 | 0.00 | 0.00 | 90 | 1017.9 |
| 20260506124142 | 77 | 84 | 0.0 | 0.0 | 0.00 | 0.00 | 0.00 | 94 | 1017.7 |
| 20260506123639 | 76 | 98 | 2.0 | 2.0 | 0.00 | 0.00 | 0.00 | 98 | 1017.7 |
| 20260506123138 | 75 | 339 | 0.0 | 0.0 | 0.00 | 0.00 | 0.00 | 99 | 1017.7 |
| 20260506122634 | 75 | 149 | 0.0 | 1.0 | 0.00 | 0.00 | 0.00 | 99 | 1017.5 |
| 20260506122132 | 74 | 9 | 0.0 | 0.0 | 0.00 | 0.00 | 0.00 | 99 | 1017.7 |
| 20260506121629 | 74 | 314 | 0.0 | 0.0 | 0.00 | 0.00 | 0.00 | 99 | 1017.6 |
| 20260506121126 | 72 | 314 | 0.0 | 0.0 | 0.00 | 0.00 | 0.00 | 99 | 1017.5 |
| 20260506120624 | 71 | 314 | 0.0 | 0.0 | 0.00 | 0.00 | 0.00 | 99 | 1017.6 |
| 20260506120121 | 71 | 314 | 0.0 | 0.0 | 0.00 | 0.00 | 0.00 | 99 | 1017.6 |
| 20260506115619 | 71 | 314 | 0.0 | 0.0 | 0.00 | 0.00 | 0.00 | 99 | 1017.8 |
| 20260506115117 | 70 | 314 | 0.0 | 0.0 | 0.00 | 0.00 | 0.00 | 99 | 1017.3 |
| 20260506114614 | 69 | 314 | 0.0 | 0.0 | 0.00 | 0.00 | 0.00 | 99 | 1017.5 |
| 20260506114112 | 69 | 314 | 0.0 | 0.0 | 0.00 | 0.00 | 0.00 | 99 | 1017.4 |
| 20260506113610 | 68 | 314 | 0.0 | 0.0 | 0.00 | 0.00 | 0.00 | 99 | 1017.3 |
| 20260506113107 | 68 | 314 | 0.0 | 0.0 | 0.00 | 0.00 | 0.00 | 99 | 1017.4 |
| 20260506112603 | 67 | 314 | 0.0 | 0.0 | 0.00 | 0.00 | 0.00 | 99 | 1017.5 |
| 20260506112101 | 67 | 314 | 0.0 | 0.0 | 0.00 | 0.00 | 0.00 | 99 | 1017.4 |
| 20260506111559 | 67 | 314 | 0.0 | 0.0 | 0.00 | 0.00 | 0.00 | 99 | 1017.3 |
| 20260506111056 | 67 | 314 | 0.0 | 0.0 | 0.00 | 0.00 | 0.00 | 99 | 1017.5 |
| 20260506110553 | 67 | 314 | 0.0 | 0.0 | 0.00 | 0.00 | 0.00 | 99 | 1017.6 |
| 20260506110050 | 67 | 314 | 0.0 | 0.0 | 0.00 | 0.00 | 0.00 | 99 | 1017.1 |
| 20260506105546 | 67 | 314 | 0.0 | 0.0 | 0.00 | 0.00 | 0.00 | 99 | 1017.1 |
| 20260506105044 | 66 | 314 | 0.0 | 0.0 | 0.00 | 0.00 | 0.00 | 99 | 1017.1 |
| 20260506104542 | 66 | 314 | 0.0 | 0.0 | 0.00 | 0.00 | 0.00 | 99 | 1016.8 |
| 20260506104039 | 66 | 314 | 0.0 | 0.0 | 0.00 | 0.00 | 0.00 | 99 | 1016.9 |
| 20260506103536 | 66 | 314 | 0.0 | 0.0 | 0.00 | 0.00 | 0.00 | 99 | 1016.9 |
| 20260506103033 | 66 | 314 | 0.0 | 0.0 | 0.00 | 0.00 | 0.00 | 99 | 1016.7 |
| 20260506102532 | 66 | 314 | 0.0 | 0.0 | 0.00 | 0.00 | 0.00 | 99 | 1016.5 |
| 20260506102029 | 66 | 314 | 0.0 | 0.0 | 0.00 | 0.00 | 0.00 | 99 | 1016.7 |
| 20260506101525 | 66 | 314 | 0.0 | 0.0 | 0.00 | 0.00 | 0.00 | 99 | 1016.7 |
| 20260506101022 | 66 | 314 | 0.0 | 0.0 | 0.00 | 0.00 | 0.00 | 99 | 1016.7 |
| 20260506100520 | 66 | 314 | 0.0 | 0.0 | 0.00 | 0.00 | 0.00 | 99 | 1016.6 |
| 20260506100018 | 66 | 314 | 0.0 | 0.0 | 0.00 | 0.00 | 0.00 | 99 | 1016.8 |
| 20260506095517 | 66 | 314 | 0.0 | 0.0 | 0.00 | 0.00 | 0.00 | 99 | 1016.8 |
| 20260506095012 | 66 | 314 | 0.0 | 0.0 | 0.00 | 0.00 | 0.00 | 99 | 1016.5 |
| 20260506094511 | 66 | 314 | 0.0 | 0.0 | 0.00 | 0.00 | 0.00 | 99 | 1016.6 |
| 20260506094008 | 66 | 314 | 0.0 | 0.0 | 0.00 | 0.00 | 0.00 | 99 | 1016.5 |
| 20260506093507 | 66 | 314 | 0.0 | 0.0 | 0.00 | 0.00 | 0.00 | 99 | 1016.5 |
| 20260506093004 | 66 | 314 | 0.0 | 0.0 | 0.00 | 0.00 | 0.00 | 99 | 1016.5 |
| 20260506092502 | 66 | 314 | 0.0 | 0.0 | 0.00 | 0.00 | 0.00 | 99 | 1016.5 |
| 20260506091957 | 67 | 314 | 0.0 | 0.0 | 0.00 | 0.00 | 0.00 | 99 | 1016.6 |
| 20260506091456 | 66 | 314 | 0.0 | 0.0 | 0.00 | 0.00 | 0.00 | 99 | 1016.4 |
| 20260506090953 | 67 | 314 | 0.0 | 0.0 | 0.00 | 0.00 | 0.00 | 99 | 1016.5 |
| 20260506090451 | 66 | 314 | 0.0 | 0.0 | 0.00 | 0.00 | 0.00 | 99 | 1016.5 |
| 20260506085947 | 66 | 314 | 0.0 | 0.0 | 0.00 | 0.00 | 0.00 | 99 | 1016.2 |
| 20260506085444 | 67 | 314 | 0.0 | 0.0 | 0.00 | 0.00 | 0.00 | 99 | 1016.3 |
| 20260506084940 | 67 | 314 | 0.0 | 0.0 | 0.00 | 0.00 | 0.00 | 99 | 1016.2 |
| 20260506084437 | 67 | 314 | 0.0 | 0.0 | 0.00 | 0.00 | 0.00 | 99 | 1016.3 |
| 20260506083933 | 67 | 314 | 0.0 | 0.0 | 0.00 | 0.00 | 0.00 | 99 | 1016.4 |
| 20260506083431 | 66 | 314 | 0.0 | 0.0 | 0.00 | 0.00 | 0.00 | 99 | 1016.3 |
| 20260506082928 | 66 | 314 | 0.0 | 0.0 | 0.00 | 0.00 | 0.00 | 99 | 1016.2 |
| 20260506082425 | 67 | 314 | 0.0 | 0.0 | 0.00 | 0.00 | 0.00 | 99 | 1016.3 |
| 20260506081920 | 66 | 314 | 0.0 | 0.0 | 0.00 | 0.00 | 0.00 | 99 | 1016.5 |
| 20260506081419 | 67 | 314 | 0.0 | 0.0 | 0.00 | 0.00 | 0.00 | 99 | 1016.3 |
| 20260506080916 | 67 | 314 | 0.0 | 0.0 | 0.00 | 0.00 | 0.00 | 99 | 1016.6 |
| 20260506080412 | 66 | 314 | 0.0 | 0.0 | 0.00 | 0.00 | 0.00 | 99 | 1016.5 |
| 20260506073357 | 67 | 314 | 0.0 | 0.0 | 0.00 | 0.00 | 0.00 | 99 | 1016.6 |
| 20260506072853 | 67 | 314 | 0.0 | 0.0 | 0.00 | 0.00 | 0.00 | 99 | 1016.7 |
| 20260506072351 | 67 | 314 | 0.0 | 0.0 | 0.00 | 0.00 | 0.00 | 99 | 1016.4 |
| 20260506071848 | 67 | 314 | 0.0 | 0.0 | 0.00 | 0.00 | 0.00 | 99 | 1016.7 |
| 20260506071347 | 67 | 314 | 0.0 | 0.0 | 0.00 | 0.00 | 0.00 | 99 | 1016.7 |
| 20260506070843 | 67 | 314 | 0.0 | 0.0 | 0.00 | 0.00 | 0.00 | 99 | 1016.9 |
| 20260506070340 | 68 | 314 | 0.0 | 0.0 | 0.00 | 0.00 | 0.00 | 99 | 1016.7 |